SCP
-0 0 0 0 0 0 0 0 0 -0 0 0 0 0 -0 0 0 0 0 0 0 0 0 1 1 1 0 0 0 0 0 0 0 0 0 0 0 0 0 0 0 0 0 0 0 0 0 0 0
0 0 0 -0 0 0 0 0 0 0 0 0 0 0 0 0 0 0 0 0 0 0 0 1 1 1 1 1 1 1 1 0 0 0 0 0 0 0 0 0 0 0 0 0 0 0 0 0 0
0 -0 0 0 0 0 0 -0 0 0 -0 0 0 0 0 0 0 0 0 0 0 0 0 0 1 1 1 1 1 1 1 1 0 0 0 0 0 0 0 0 0 0 0 0 0 0 0 0 0
0 0 0 0 0 0 0 0 0 0 0 0 0 0 0 0 0 0 0 0 0 0 0 0 1 1 2 1 1 1 1 1 1 0 0 0 0 0 0 0 0 0 0 0 0 0 0 0 0
0 0 0 0 0 0 0 0 0 0 0 0 0 0 0 0 0 0 0 0 0 0 0 1 1 1 2 1 1 1 1 1 1 1 0 0 0 0 0 0 0 0 0 0 0 0 0 0 0
0 0 0 0 0 0 0 0 0 0 0 0 0 0 0 0 0 0 0 0 0 1 1 2 1 1 1 1 1 1 1 1 0 0 0 0 0 0 0 0 0 0 0 0 0 0 0 0 0
0 0 0 0 -0 0 0 -0 0 0 0 0 0 0 0 0 0 0 0 0 0 0 1 1 1 1 1 1 1 1 1 0 0 0 0 0 0 0 0 0 0 0 0 0 0 0 0 0 0
0 0 0 0 0 0 0 0 -0 0 0 0 0 0 0 0 0 0 0 0 0 0 0 0 1 1 1 1 1 1 0 0 0 0 0 0 0 0 0 0 0 0 0 0 0 0 0 0 0
0 0 0 0 0 0 0 0 0 0 0 0 0 0 0 0 0 0 0 0 0 0 0 0 0 0 0 0 0 0 0 0 0 0 0 0 0 0 0 0 0 0 0 -0 0 0 0 0 0
0 0 0 0 0 0 -0 -0 0 0 0 0 0 0 0 0 0 0 0 0 0 0 0 0 0 0 0 0 0 0 0 0 0 0 0 0 0 0 0 0 0 0 0 0 -0 0 0 0 0
0 0 0 0 0 0 0 -0 0 0 0 0 0 0 0 0 0 0 0 0 0 0 0 0 0 0 0 0 0 0 0 0 0 0 0 0 0 0 0 0 0 0 0 0 0 0 0 0 0
0 0 0 0 0 0 0 0 -0 0 0 0 0 0 0 0 0 0 0 0 0 0 0 0 0 0 0 0 0 0 0 0 0 0 0 0 0 0 0 0 0 0 0 0 0 0 0 0 0
0 0 0 0 0 0 0 0 -0 0 0 0 0 0 0 0 0 0 0 0 0 0 0 0 0 0 0 0 0 0 0 0 0 0 0 0 0 0 0 0 0 0 0 0 0 0 0 0 0
0 0 0 0 -0 0 0 -0 0 -0 0 0 0 0 0 0 0 0 0 0 0 0 0 0 0 0 0 0 0 0 0 0 0 0 0 0 0 0 0 0 0 0 0 0 0 0 0 0 0
0 0 0 -0 -0 0 -0 -0 -0 -0 0 0 0 0 0 0 0 0 0 0 0 0 0 0 0 0 0 0 0 0 0 0 0 0 0 0 0 0 0 0 0 0 0 0 0 0 0 0 0
0 0 0 0 -0 0 0 -0 0 0 0 0 0 0 0 0 0 0 0 0 0 0 0 0 0 0 0 0 0 0 0 0 0 0 0 0 0 0 0 0 0 0 0 0 0 0 0 0 0
0 0 0 0 0 0 0 -0 -0 -0 0 -0 0 0 0 0 0 0 0 0 0 0 0 0 0 0 0 0 0 0 0 0 0 0 0 0 0 0 0 0 0 0 0 0 0 0 0 0 0
0 0 0 0 -0 0 0 -0 0 -0 -0 0 0 0 0 0 0 0 0 0 0 0 0 0 0 0 0 0 0 0 0 0 0 0 0 0 0 0 0 0 0 0 0 0 0 0 0 0 0
0 0 0 -0 -0 0 -0 -0 -0 -0 0 0 0 0 0 0 0 0 0 0 0 0 0 0 0 0 0 0 0 0 0 0 0 0 0 0 0 0 0 0 0 0 0 0 0 0 0 0 0
0 0 -0 -0 -0 0 -0 -0 -0 0 0 0 0 0 0 0 0 0 0 0 0 0 0 0 0 0 0 0 0 0 0 0 0 0 0 0 0 0 0 0 0 0 -0 -0 0 0 0 0 0
0 -0 0 0 0 -0 -0 -0 0 0 0 0 0 0 0 0 0 0 0 0 0 0 0 0 0 0 0 0 0 0 0 0 0 0 0 0 0 0 0 -0 0 -0 -0 0 0 0 0 0 0
-0 0 0 0 0 -0 0 -0 0 0 0 0 -0 -0 0 0 0 0 0 0 0 0 0 0 0 0 0 0 0 0 0 0 0 0 0 0 0 0 -0 0 0 -0 0 0 0 0 0 0 0
-0 0 0 0 -0 -0 0 0 0 0 -0 -0 -0 -0 0 0 0 0 0 0 0 0 0 0 0 0 0 0 0 0 0 0 0 0 0 0 0 0 -0 0 -0 0 0 0 0 0 0 0 0
0 0 0 0 0 -0 -0 0 -0 0 0 0 -0 0 0 0 0 0 0 0 0 0 0 0 0 0 0 0 0 0 0 0 0 0 0 0 0 0 0 -0 0 0 0 0 0 0 0 0 0
0 0 0 0 0 -0 0 0 -0 0 0 0 0 0 0 0 0 0 0 0 0 0 0 0 0 0 0 0 0 0 0 0 0 0 0 0 0 0 0 0 0 0 0 0 0 0 0 0 0
-0 -0 0 0 -0 -0 0 0 -0 -0 -0 -0 0 0 0 0 0 0 0 0 0 0 0 0 0 0 0 0 0 0 0 0 0 0 0 0 0 -0 0 0 0 0 0 0 0 0 0 0 0
-0 -0 -0 0 -0 0 0 0 0 0 0 0 0 0 0 0 0 0 -0 0 0 0 0 0 0 0 0 0 0 0 0 0 0 0 0 0 -0 -0 0 0 0 0 0 0 0 0 0 0 0
-0 0 0 0 0 0 0 0 -0 0 0 0 0 0 0 0 0 0 0 0 0 0 0 0 -0 0 0 0 0 0 0 0 0 0 0 0 0 0 0 0 0 0 0 0 0 0 0 0 0
0 0 0 0 0 0 0 0 -0 0 0 0 0 0 0 0 -0 -0 -0 -0 0 -0 -0 -0 -0 0 0 0 0 0 0 0 0 0 0 0 0 0 0 0 0 0 0 0 0 0 0 0 0
0 0 0 0 0 0 0 0 0 0 -0 -0 0 0 0 0 -0 -0 -0 -0 -0 -0 -0 -0 -0 -0 0 0 0 0 0 0 0 0 0 0 0 0 0 0 0 0 0 0 0 0 0 0 0
Wind_Speed_500mb
14 16 15 3 4 7 7 13 9 13 3 8 8 16 16 4 6 6 35 29 31 24 29 27 19 13 14 15 16 19 23 24 24 24 24 21 22 22 21 25 26 26 27 26 22 28 29 32 31
15 17 9 0 3 2 10 13 8 11 12 8 11 43 11 2 17 28 39 33 22 22 20 18 17 15 15 17 21 24 27 28 28 29 25 26 32 32 27 29 30 29 29 30 29 24 29 31 34
18 7 4 7 7 9 9 13 20 12 22 17 6 17 20 20 27 27 27 36 29 19 9 12 15 14 14 19 24 28 31 33 32 31 33 37 38 37 36 33 34 36 34 33 33 32 27 32 33
14 4 10 4 17 16 14 23 20 2 9 9 11 11 12 18 37 35 34 25 25 17 10 13 15 15 18 23 29 32 34 34 34 38 38 42 45 43 41 40 39 38 40 40 37 37 35 32 35
14 5 3 8 14 13 20 31 21 7 8 7 3 6 10 33 25 34 33 28 22 20 19 23 21 20 22 24 27 28 30 34 38 42 45 47 47 45 44 46 45 43 42 42 40 41 43 36 37
5 3 2 10 11 10 13 35 8 4 21 10 20 29 22 32 37 39 29 26 28 24 21 27 23 22 22 27 28 26 26 25 30 35 41 44 48 52 54 51 49 50 52 48 48 47 45 42 37
8 5 9 11 27 21 2 22 14 23 8 14 29 14 14 47 39 37 33 35 30 22 27 26 22 21 24 28 29 30 32 29 28 32 39 42 45 51 54 54 54 53 52 52 53 50 49 47 43
14 8 9 11 7 20 8 15 39 23 21 29 22 15 13 53 47 42 37 30 21 19 26 28 21 22 27 30 31 31 33 29 29 32 36 32 33 30 31 33 38 41 44 46 47 48 52 50 46
24 3 16 14 13 20 57 7 55 34 14 18 23 28 36 37 53 51 44 37 28 29 26 21 24 26 26 25 30 36 31 31 33 37 33 40 37 28 27 27 29 28 33 31 38 42 48 48 47
20 11 25 27 18 19 46 27 46 17 29 32 36 29 29 48 60 59 47 46 37 30 29 30 30 24 22 27 32 31 31 34 34 33 31 36 22 24 22 24 23 29 28 32 35 42 44 47 48
24 32 38 48 49 55 50 53 57 22 12 36 36 28 44 53 63 55 43 35 26 36 40 38 31 23 23 30 30 26 29 34 34 29 35 30 23 21 20 22 22 26 29 30 29 37 42 44 48
13 42 60 67 67 58 43 66 52 37 36 55 50 43 51 60 61 53 41 37 41 49 52 46 36 27 23 27 21 19 22 22 25 31 33 25 21 20 22 21 22 23 20 22 26 33 37 42 40
26 50 62 62 61 71 71 51 49 43 54 58 43 38 54 59 52 45 41 40 48 51 54 44 35 25 23 22 12 16 18 17 20 22 27 31 29 27 22 23 28 26 24 23 23 30 37 39 35
35 47 55 59 63 71 54 55 40 52 53 56 58 51 51 57 53 52 56 53 55 55 55 44 29 21 22 14 11 17 18 18 21 22 25 32 35 32 26 24 25 25 28 26 25 26 34 39 37
49 43 40 44 45 41 55 38 29 60 60 61 52 49 49 55 55 56 63 63 60 56 48 35 24 21 16 8 9 16 21 24 28 26 25 28 32 32 32 29 26 22 24 28 31 29 33 35 41
11 8 17 22 31 58 23 48 34 65 61 63 55 54 56 58 58 61 66 62 61 58 47 30 23 16 14 7 12 19 24 29 32 30 27 26 29 30 31 30 26 23 25 26 34 34 33 35 39
10 25 34 26 25 25 18 43 37 65 60 57 64 58 59 66 65 66 69 67 68 58 42 28 20 10 8 6 9 19 25 29 28 27 26 24 23 23 27 23 22 23 22 26 33 38 37 35 37
23 22 10 33 39 16 27 33 41 65 57 60 68 61 61 57 66 68 74 72 63 50 34 24 16 7 6 5 10 17 26 28 27 24 20 19 18 21 23 17 19 21 19 21 33 44 38 37 37
15 14 18 39 49 11 25 30 45 41 35 42 56 64 67 44 48 64 73 66 56 42 30 25 16 11 10 8 13 20 31 32 30 21 21 21 18 19 19 18 19 16 12 14 27 32 39 38 30
24 28 35 41 45 12 34 37 43 24 15 42 58 67 64 38 43 58 73 66 55 40 29 24 16 10 7 6 14 22 28 27 30 17 16 19 25 13 18 15 14 10 8 20 27 31 36 34 32
32 35 33 36 41 32 22 31 18 11 11 26 46 51 39 44 62 73 71 63 50 36 29 24 15 10 5 9 11 19 17 23 27 17 12 19 17 8 16 16 14 13 12 18 23 32 35 33 36
39 34 39 31 24 17 11 13 11 11 10 9 26 30 34 55 68 75 73 63 50 33 29 23 17 10 12 6 9 16 23 29 27 11 12 8 4 12 14 15 18 15 15 20 23 32 35 33 35
37 35 35 39 27 17 43 8 15 11 11 18 19 21 41 61 72 81 73 62 41 33 31 24 18 10 11 10 9 17 23 21 15 5 6 5 4 12 18 20 21 22 19 18 19 29 28 31 35
45 23 23 24 18 22 32 14 28 10 16 11 5 37 62 66 71 72 65 50 40 33 30 26 19 9 5 9 4 18 16 16 14 8 7 9 9 15 25 25 28 23 23 19 18 21 30 25 37
29 19 8 5 7 22 19 14 23 13 16 15 17 40 50 60 66 67 64 54 41 40 33 27 17 12 9 11 9 14 13 14 14 12 12 9 10 19 30 29 30 23 24 19 15 19 26 22 31
39 28 16 14 11 8 13 11 18 17 10 25 36 49 56 59 60 62 62 51 42 40 35 25 15 13 19 17 9 6 12 8 13 16 20 4 10 21 30 28 29 21 24 17 14 20 22 24 31
27 29 41 9 7 3 8 13 17 9 13 12 31 51 60 62 63 66 59 49 42 39 33 22 19 17 21 17 8 4 11 10 12 16 17 11 18 21 29 27 29 20 23 19 16 20 21 26 32
51 11 14 4 20 13 8 7 10 2 15 13 17 32 56 60 63 63 58 52 40 35 28 23 19 22 18 8 10 7 5 11 12 12 12 16 15 16 22 25 25 27 26 24 20 19 22 21 31
22 20 11 9 12 17 5 14 15 25 20 30 25 52 65 68 70 66 60 50 38 35 31 30 24 26 21 11 13 7 1 9 10 11 12 13 15 19 21 22 27 32 33 26 23 25 30 31 30
28 29 21 17 10 4 11 20 7 24 26 30 31 56 67 71 71 65 59 51 45 42 35 33 30 24 21 15 17 12 4 4 7 14 11 10 16 22 24 31 33 36 35 30 29 34 32 33 35
Wind_Direction_500mb
158 155 167 204 37 62 266 257 236 292 309 201 143 120 142 117 183 217 146 156 173 186 193 206 209 244 255 256 282 284 282 274 275 275 277 274 262 266 268 269 270 274 283 279 265 250 250 236 235
168 162 179 303 92 97 262 244 285 242 237 178 140 127 103 231 139 152 160 174 199 191 200 221 231 241 256 271 290 287 283 280 280 274 273 267 274 281 273 262 260 263 273 272 272 256 245 248 240
175 201 276 160 183 204 212 248 247 266 197 207 151 123 145 167 173 178 180 179 185 189 231 242 237 231 243 268 274 275 275 275 273 267 266 277 279 279 277 266 262 265 263 262 266 269 255 245 244
184 228 253 177 234 262 240 260 282 276 350 297 167 78 87 165 163 183 175 174 190 204 218 226 227 236 253 275 284 282 275 271 271 270 269 276 278 276 272 270 268 264 263 262 255 263 264 249 246
201 234 264 261 251 256 278 270 252 345 317 89 108 154 120 163 188 177 175 184 206 206 203 212 234 253 283 287 289 290 283 278 271 268 270 275 275 276 268 268 268 268 264 261 253 250 250 248 242
216 265 309 254 247 260 278 286 216 233 277 162 120 146 168 185 182 172 181 198 208 219 213 221 245 256 269 291 296 302 294 284 279 274 272 271 270 267 265 266 265 264 262 256 250 250 249 242 238
164 99 238 265 285 302 213 317 290 246 218 239 168 137 185 180 187 183 200 204 212 226 230 235 248 249 290 298 302 304 311 294 283 281 286 284 278 269 265 266 263 261 257 252 249 244 244 242 235
201 126 269 242 237 279 270 336 327 337 286 284 196 170 189 196 189 191 200 215 221 222 234 238 244 267 283 296 303 300 302 291 291 296 301 299 294 285 271 265 260 259 257 255 250 244 237 235 232
203 146 255 237 227 253 282 358 302 304 316 283 246 240 254 199 186 191 196 209 215 222 236 244 243 254 280 280 289 298 288 283 294 310 312 312 298 290 281 271 255 256 260 252 245 236 235 229 228
188 188 236 235 255 276 287 286 292 297 316 312 314 274 226 188 189 195 204 210 212 222 231 233 232 260 269 283 293 299 290 291 299 303 303 304 297 295 283 273 259 257 262 256 245 233 229 225 225
206 226 242 266 263 269 271 284 284 280 293 295 289 206 183 188 191 202 216 216 223 217 217 218 231 240 276 301 303 302 288 285 284 289 295 293 293 301 281 276 257 254 257 259 244 230 223 222 222
266 242 243 253 264 269 268 277 277 260 279 294 293 240 198 190 197 208 208 211 214 217 209 205 214 248 282 305 307 318 308 301 294 287 288 276 278 288 285 271 268 258 258 255 243 232 221 217 221
234 241 246 254 263 266 270 264 262 257 278 283 287 223 204 207 210 211 210 209 220 215 205 212 234 262 300 305 302 326 346 319 312 287 278 279 285 275 286 279 266 265 265 258 243 229 220 217 216
238 249 253 259 262 266 265 270 258 258 280 277 278 226 209 211 212 207 205 209 211 208 215 222 236 263 298 320 324 323 323 322 318 307 286 279 279 275 275 287 274 261 267 251 237 221 215 220 216
257 257 263 260 254 258 270 269 250 269 270 271 243 224 213 215 206 217 217 217 224 219 217 222 239 262 305 330 317 336 337 324 313 312 299 286 281 273 272 280 272 266 268 248 230 218 218 222 214
301 268 253 245 259 262 240 269 275 270 264 254 240 225 227 220 217 227 219 220 216 216 212 222 240 272 309 311 325 331 319 317 311 302 296 290 278 273 267 265 261 266 265 246 229 219 215 215 211
229 257 260 278 245 260 220 267 269 276 253 238 241 246 241 245 223 223 216 219 215 216 214 226 232 261 299 288 313 317 323 314 307 292 292 285 277 274 265 249 256 267 264 244 229 218 213 209 207
218 237 225 255 257 257 267 265 270 267 251 229 229 238 248 248 237 221 208 209 212 209 215 219 212 234 223 218 269 297 319 326 324 305 297 296 290 272 260 247 261 265 262 248 216 210 213 206 210
238 236 247 262 268 280 269 272 271 262 246 222 222 235 245 250 235 212 202 203 202 206 209 201 205 192 189 213 274 300 309 323 327 306 292 289 301 281 252 233 245 260 252 220 194 199 201 200 204
230 242 248 271 269 260 274 281 286 266 229 221 221 234 244 226 203 194 192 199 206 203 195 195 194 185 171 273 267 300 306 322 331 307 302 302 295 270 248 225 238 216 198 180 183 190 193 200 198
228 231 245 244 277 278 277 280 265 296 236 231 239 248 248 211 183 182 192 199 197 192 193 193 185 175 185 218 281 309 316 330 332 314 297 313 295 255 185 206 197 180 169 174 177 180 188 195 189
235 227 241 251 255 257 141 281 275 242 267 257 282 292 243 193 189 189 192 193 186 188 185 179 184 178 215 232 295 328 335 336 333 314 309 327 318 166 178 178 168 166 161 171 187 195 190 196 194
230 224 235 246 248 261 280 292 267 273 275 271 289 252 195 186 191 191 193 187 182 184 180 179 182 210 238 251 329 340 334 350 350 347 347 16 141 165 164 158 151 152 157 159 173 178 190 196 193
233 241 240 257 244 254 244 214 264 222 228 254 231 194 185 186 186 188 187 181 178 178 176 180 189 212 249 193 265 319 336 6 11 359 327 354 185 173 166 165 161 152 153 148 161 190 185 195 190
216 203 250 288 197 240 214 195 240 226 229 223 197 202 190 187 185 185 180 177 177 177 179 183 199 198 221 207 240 318 336 12 11 6 349 359 153 171 178 176 170 151 154 149 160 174 178 181 179
221 212 202 184 221 234 208 226 257 224 237 231 193 189 183 181 186 181 179 177 179 177 182 187 182 186 182 193 265 326 357 351 14 22 6 12 144 166 174 180 171 163 165 162 167 168 178 175 186
222 211 224 215 320 130 210 282 319 262 139 132 136 160 172 182 184 179 179 181 177 179 186 187 176 184 181 195 271 66 14 18 11 15 23 79 127 144 172 172 176 161 161 170 174 175 170 175 180
220 141 229 305 205 213 265 242 227 161 155 151 157 158 171 179 178 177 180 179 179 183 182 186 182 186 189 196 169 97 34 28 28 22 51 93 120 147 165 173 176 174 166 172 172 171 168 181 178
201 200 198 178 166 192 203 262 195 200 180 172 173 169 176 180 178 178 180 179 181 182 181 179 183 186 185 183 174 145 311 23 52 50 87 99 95 134 149 156 158 159 164 163 162 161 155 165 162
210 204 182 215 231 167 156 257 222 213 173 168 172 176 182 181 178 180 179 180 183 186 182 184 181 188 190 185 168 155 198 31 69 62 79 118 102 123 131 151 148 152 158 158 154 154 155 157 158
Wind_Speed_850mb
14 16 15 3 4 7 7 13 9 13 3 8 8 16 16 4 6 6 35 29 31 24 29 27 19 13 14 15 16 19 23 24 24 24 24 21 22 22 21 25 26 26 27 26 22 28 29 32 31
15 17 9 0 3 2 10 13 8 11 12 8 11 43 11 2 17 28 39 33 22 22 20 18 17 15 15 17 21 24 27 28 28 29 25 26 32 32 27 29 30 29 29 30 29 24 29 31 34
18 7 4 7 7 9 9 13 20 12 22 17 6 17 20 20 27 27 27 36 29 19 9 12 15 14 14 19 24 28 31 33 32 31 33 37 38 37 36 33 34 36 34 33 33 32 27 32 33
14 4 10 4 17 16 14 23 20 2 9 9 11 11 12 18 37 35 34 25 25 17 10 13 15 15 18 23 29 32 34 34 34 38 38 42 45 43 41 40 39 38 40 40 37 37 35 32 35
14 5 3 8 14 13 20 31 21 7 8 7 3 6 10 33 25 34 33 28 22 20 19 23 21 20 22 24 27 28 30 34 38 42 45 47 47 45 44 46 45 43 42 42 40 41 43 36 37
5 3 2 10 11 10 13 35 8 4 21 10 20 29 22 32 37 39 29 26 28 24 21 27 23 22 22 27 28 26 26 25 30 35 41 44 48 52 54 51 49 50 52 48 48 47 45 42 37
8 5 9 11 27 21 2 22 14 23 8 14 29 14 14 47 39 37 33 35 30 22 27 26 22 21 24 28 29 30 32 29 28 32 39 42 45 51 54 54 54 53 52 52 53 50 49 47 43
14 8 9 11 7 20 8 15 39 23 21 29 22 15 13 53 47 42 37 30 21 19 26 28 21 22 27 30 31 31 33 29 29 32 36 32 33 30 31 33 38 41 44 46 47 48 52 50 46
24 3 16 14 13 20 57 7 55 34 14 18 23 28 36 37 53 51 44 37 28 29 26 21 24 26 26 25 30 36 31 31 33 37 33 40 37 28 27 27 29 28 33 31 38 42 48 48 47
20 11 25 27 18 19 46 27 46 17 29 32 36 29 29 48 60 59 47 46 37 30 29 30 30 24 22 27 32 31 31 34 34 33 31 36 22 24 22 24 23 29 28 32 35 42 44 47 48
24 32 38 48 49 55 50 53 57 22 12 36 36 28 44 53 63 55 43 35 26 36 40 38 31 23 23 30 30 26 29 34 34 29 35 30 23 21 20 22 22 26 29 30 29 37 42 44 48
13 42 60 67 67 58 43 66 52 37 36 55 50 43 51 60 61 53 41 37 41 49 52 46 36 27 23 27 21 19 22 22 25 31 33 25 21 20 22 21 22 23 20 22 26 33 37 42 40
26 50 62 62 61 71 71 51 49 43 54 58 43 38 54 59 52 45 41 40 48 51 54 44 35 25 23 22 12 16 18 17 20 22 27 31 29 27 22 23 28 26 24 23 23 30 37 39 35
35 47 55 59 63 71 54 55 40 52 53 56 58 51 51 57 53 52 56 53 55 55 55 44 29 21 22 14 11 17 18 18 21 22 25 32 35 32 26 24 25 25 28 26 25 26 34 39 37
49 43 40 44 45 41 55 38 29 60 60 61 52 49 49 55 55 56 63 63 60 56 48 35 24 21 16 8 9 16 21 24 28 26 25 28 32 32 32 29 26 22 24 28 31 29 33 35 41
11 8 17 22 31 58 23 48 34 65 61 63 55 54 56 58 58 61 66 62 61 58 47 30 23 16 14 7 12 19 24 29 32 30 27 26 29 30 31 30 26 23 25 26 34 34 33 35 39
10 25 34 26 25 25 18 43 37 65 60 57 64 58 59 66 65 66 69 67 68 58 42 28 20 10 8 6 9 19 25 29 28 27 26 24 23 23 27 23 22 23 22 26 33 38 37 35 37
23 22 10 33 39 16 27 33 41 65 57 60 68 61 61 57 66 68 74 72 63 50 34 24 16 7 6 5 10 17 26 28 27 24 20 19 18 21 23 17 19 21 19 21 33 44 38 37 37
15 14 18 39 49 11 25 30 45 41 35 42 56 64 67 44 48 64 73 66 56 42 30 25 16 11 10 8 13 20 31 32 30 21 21 21 18 19 19 18 19 16 12 14 27 32 39 38 30
24 28 35 41 45 12 34 37 43 24 15 42 58 67 64 38 43 58 73 66 55 40 29 24 16 10 7 6 14 22 28 27 30 17 16 19 25 13 18 15 14 10 8 20 27 31 36 34 32
32 35 33 36 41 32 22 31 18 11 11 26 46 51 39 44 62 73 71 63 50 36 29 24 15 10 5 9 11 19 17 23 27 17 12 19 17 8 16 16 14 13 12 18 23 32 35 33 36
39 34 39 31 24 17 11 13 11 11 10 9 26 30 34 55 68 75 73 63 50 33 29 23 17 10 12 6 9 16 23 29 27 11 12 8 4 12 14 15 18 15 15 20 23 32 35 33 35
37 35 35 39 27 17 43 8 15 11 11 18 19 21 41 61 72 81 73 62 41 33 31 24 18 10 11 10 9 17 23 21 15 5 6 5 4 12 18 20 21 22 19 18 19 29 28 31 35
45 23 23 24 18 22 32 14 28 10 16 11 5 37 62 66 71 72 65 50 40 33 30 26 19 9 5 9 4 18 16 16 14 8 7 9 9 15 25 25 28 23 23 19 18 21 30 25 37
29 19 8 5 7 22 19 14 23 13 16 15 17 40 50 60 66 67 64 54 41 40 33 27 17 12 9 11 9 14 13 14 14 12 12 9 10 19 30 29 30 23 24 19 15 19 26 22 31
39 28 16 14 11 8 13 11 18 17 10 25 36 49 56 59 60 62 62 51 42 40 35 25 15 13 19 17 9 6 12 8 13 16 20 4 10 21 30 28 29 21 24 17 14 20 22 24 31
27 29 41 9 7 3 8 13 17 9 13 12 31 51 60 62 63 66 59 49 42 39 33 22 19 17 21 17 8 4 11 10 12 16 17 11 18 21 29 27 29 20 23 19 16 20 21 26 32
51 11 14 4 20 13 8 7 10 2 15 13 17 32 56 60 63 63 58 52 40 35 28 23 19 22 18 8 10 7 5 11 12 12 12 16 15 16 22 25 25 27 26 24 20 19 22 21 31
22 20 11 9 12 17 5 14 15 25 20 30 25 52 65 68 70 66 60 50 38 35 31 30 24 26 21 11 13 7 1 9 10 11 12 13 15 19 21 22 27 32 33 26 23 25 30 31 30
28 29 21 17 10 4 11 20 7 24 26 30 31 56 67 71 71 65 59 51 45 42 35 33 30 24 21 15 17 12 4 4 7 14 11 10 16 22 24 31 33 36 35 30 29 34 32 33 35
Wind_Direction_850mb
158 155 167 204 37 62 266 257 236 292 309 201 143 120 142 117 183 217 146 156 173 186 193 206 209 244 255 256 282 284 282 274 275 275 277 274 262 266 268 269 270 274 283 279 265 250 250 236 235
168 162 179 303 92 97 262 244 285 242 237 178 140 127 103 231 139 152 160 174 199 191 200 221 231 241 256 271 290 287 283 280 280 274 273 267 274 281 273 262 260 263 273 272 272 256 245 248 240
175 201 276 160 183 204 212 248 247 266 197 207 151 123 145 167 173 178 180 179 185 189 231 242 237 231 243 268 274 275 275 275 273 267 266 277 279 279 277 266 262 265 263 262 266 269 255 245 244
184 228 253 177 234 262 240 260 282 276 350 297 167 78 87 165 163 183 175 174 190 204 218 226 227 236 253 275 284 282 275 271 271 270 269 276 278 276 272 270 268 264 263 262 255 263 264 249 246
201 234 264 261 251 256 278 270 252 345 317 89 108 154 120 163 188 177 175 184 206 206 203 212 234 253 283 287 289 290 283 278 271 268 270 275 275 276 268 268 268 268 264 261 253 250 250 248 242
216 265 309 254 247 260 278 286 216 233 277 162 120 146 168 185 182 172 181 198 208 219 213 221 245 256 269 291 296 302 294 284 279 274 272 271 270 267 265 266 265 264 262 256 250 250 249 242 238
164 99 238 265 285 302 213 317 290 246 218 239 168 137 185 180 187 183 200 204 212 226 230 235 248 249 290 298 302 304 311 294 283 281 286 284 278 269 265 266 263 261 257 252 249 244 244 242 235
201 126 269 242 237 279 270 336 327 337 286 284 196 170 189 196 189 191 200 215 221 222 234 238 244 267 283 296 303 300 302 291 291 296 301 299 294 285 271 265 260 259 257 255 250 244 237 235 232
203 146 255 237 227 253 282 358 302 304 316 283 246 240 254 199 186 191 196 209 215 222 236 244 243 254 280 280 289 298 288 283 294 310 312 312 298 290 281 271 255 256 260 252 245 236 235 229 228
188 188 236 235 255 276 287 286 292 297 316 312 314 274 226 188 189 195 204 210 212 222 231 233 232 260 269 283 293 299 290 291 299 303 303 304 297 295 283 273 259 257 262 256 245 233 229 225 225
206 226 242 266 263 269 271 284 284 280 293 295 289 206 183 188 191 202 216 216 223 217 217 218 231 240 276 301 303 302 288 285 284 289 295 293 293 301 281 276 257 254 257 259 244 230 223 222 222
266 242 243 253 264 269 268 277 277 260 279 294 293 240 198 190 197 208 208 211 214 217 209 205 214 248 282 305 307 318 308 301 294 287 288 276 278 288 285 271 268 258 258 255 243 232 221 217 221
234 241 246 254 263 266 270 264 262 257 278 283 287 223 204 207 210 211 210 209 220 215 205 212 234 262 300 305 302 326 346 319 312 287 278 279 285 275 286 279 266 265 265 258 243 229 220 217 216
238 249 253 259 262 266 265 270 258 258 280 277 278 226 209 211 212 207 205 209 211 208 215 222 236 263 298 320 324 323 323 322 318 307 286 279 279 275 275 287 274 261 267 251 237 221 215 220 216
257 257 263 260 254 258 270 269 250 269 270 271 243 224 213 215 206 217 217 217 224 219 217 222 239 262 305 330 317 336 337 324 313 312 299 286 281 273 272 280 272 266 268 248 230 218 218 222 214
301 268 253 245 259 262 240 269 275 270 264 254 240 225 227 220 217 227 219 220 216 216 212 222 240 272 309 311 325 331 319 317 311 302 296 290 278 273 267 265 261 266 265 246 229 219 215 215 211
229 257 260 278 245 260 220 267 269 276 253 238 241 246 241 245 223 223 216 219 215 216 214 226 232 261 299 288 313 317 323 314 307 292 292 285 277 274 265 249 256 267 264 244 229 218 213 209 207
218 237 225 255 257 257 267 265 270 267 251 229 229 238 248 248 237 221 208 209 212 209 215 219 212 234 223 218 269 297 319 326 324 305 297 296 290 272 260 247 261 265 262 248 216 210 213 206 210
238 236 247 262 268 280 269 272 271 262 246 222 222 235 245 250 235 212 202 203 202 206 209 201 205 192 189 213 274 300 309 323 327 306 292 289 301 281 252 233 245 260 252 220 194 199 201 200 204
230 242 248 271 269 260 274 281 286 266 229 221 221 234 244 226 203 194 192 199 206 203 195 195 194 185 171 273 267 300 306 322 331 307 302 302 295 270 248 225 238 216 198 180 183 190 193 200 198
228 231 245 244 277 278 277 280 265 296 236 231 239 248 248 211 183 182 192 199 197 192 193 193 185 175 185 218 281 309 316 330 332 314 297 313 295 255 185 206 197 180 169 174 177 180 188 195 189
235 227 241 251 255 257 141 281 275 242 267 257 282 292 243 193 189 189 192 193 186 188 185 179 184 178 215 232 295 328 335 336 333 314 309 327 318 166 178 178 168 166 161 171 187 195 190 196 194
230 224 235 246 248 261 280 292 267 273 275 271 289 252 195 186 191 191 193 187 182 184 180 179 182 210 238 251 329 340 334 350 350 347 347 16 141 165 164 158 151 152 157 159 173 178 190 196 193
233 241 240 257 244 254 244 214 264 222 228 254 231 194 185 186 186 188 187 181 178 178 176 180 189 212 249 193 265 319 336 6 11 359 327 354 185 173 166 165 161 152 153 148 161 190 185 195 190
216 203 250 288 197 240 214 195 240 226 229 223 197 202 190 187 185 185 180 177 177 177 179 183 199 198 221 207 240 318 336 12 11 6 349 359 153 171 178 176 170 151 154 149 160 174 178 181 179
221 212 202 184 221 234 208 226 257 224 237 231 193 189 183 181 186 181 179 177 179 177 182 187 182 186 182 193 265 326 357 351 14 22 6 12 144 166 174 180 171 163 165 162 167 168 178 175 186
222 211 224 215 320 130 210 282 319 262 139 132 136 160 172 182 184 179 179 181 177 179 186 187 176 184 181 195 271 66 14 18 11 15 23 79 127 144 172 172 176 161 161 170 174 175 170 175 180
220 141 229 305 205 213 265 242 227 161 155 151 157 158 171 179 178 177 180 179 179 183 182 186 182 186 189 196 169 97 34 28 28 22 51 93 120 147 165 173 176 174 166 172 172 171 168 181 178
201 200 198 178 166 192 203 262 195 200 180 172 173 169 176 180 178 178 180 179 181 182 181 179 183 186 185 183 174 145 311 23 52 50 87 99 95 134 149 156 158 159 164 163 162 161 155 165 162
210 204 182 215 231 167 156 257 222 213 173 168 172 176 182 181 178 180 179 180 183 186 182 184 181 188 190 185 168 155 198 31 69 62 79 118 102 123 131 151 148 152 158 158 154 154 155 157 158